TimePDT,TemperatureF,Dew PointF,Humidity,Sea Level PressureIn,VisibilityMPH,Wind Direction,Wind SpeedMPH,Gust SpeedMPH,PrecipitationIn,Events,Conditions,WindDirDegrees,DateUTC
12:15 AM,62.6,59.0,88,29.94,9.0,Calm,Calm,-,N/A,,Clear,0,2012-10-07 07:15:00
12:35 AM,62.6,60.8,94,29.94,9.0,Calm,Calm,-,N/A,,Clear,0,2012-10-07 07:35:00
12:55 AM,62.6,60.8,94,29.94,8.0,Calm,Calm,-,N/A,,Clear,0,2012-10-07 07:55:00
1:15 AM,62.6,60.8,94,29.94,10.0,Calm,Calm,-,N/A,,Partly Cloudy,0,2012-10-07 08:15:00
1:35 AM,62.6,60.8,94,29.94,10.0,Calm,Calm,-,N/A,,Mostly Cloudy,0,2012-10-07 08:35:00
1:55 AM,62.6,60.8,94,29.94,10.0,Calm,Calm,-,N/A,,Overcast,0,2012-10-07 08:55:00
2:15 AM,64.4,60.8,88,29.94,10.0,Calm,Calm,-,N/A,,Overcast,0,2012-10-07 09:15:00
2:35 AM,64.4,60.8,88,29.93,10.0,Calm,Calm,-,N/A,,Overcast,0,2012-10-07 09:35:00
2:55 AM,64.4,60.8,88,29.92,10.0,Calm,Calm,-,N/A,,Overcast,0,2012-10-07 09:55:00
3:15 AM,64.4,60.8,88,29.92,10.0,Calm,Calm,-,N/A,,Overcast,0,2012-10-07 10:15:00
3:35 AM,64.4,59.0,83,29.92,10.0,Calm,Calm,-,N/A,,Overcast,0,2012-10-07 10:35:00
3:55 AM,64.4,59.0,83,29.92,10.0,NW,3.5,-,N/A,,Overcast,320,2012-10-07 10:55:00
4:15 AM,64.4,59.0,83,29.92,10.0,Calm,Calm,-,N/A,,Overcast,0,2012-10-07 11:15:00
4:35 AM,64.4,59.0,83,29.92,10.0,Calm,Calm,-,N/A,,Overcast,0,2012-10-07 11:35:00
4:55 AM,64.4,60.8,88,29.92,9.0,Calm,Calm,-,N/A,,Overcast,0,2012-10-07 11:55:00
5:15 AM,64.4,60.8,88,29.92,8.0,Calm,Calm,-,N/A,,Overcast,0,2012-10-07 12:15:00
5:35 AM,64.4,60.8,88,29.92,9.0,Calm,Calm,-,N/A,,Overcast,0,2012-10-07 12:35:00
5:55 AM,64.4,60.8,88,29.92,8.0,Calm,Calm,-,N/A,,Overcast,0,2012-10-07 12:55:00
6:47 AM,64.4,60.8,88,29.92,7.0,Calm,Calm,-,N/A,,Overcast,0,2012-10-07 13:47:00
10:47 AM,77.0,57.2,50,29.94,25.0,West,6.9,-,N/A,,Clear,270,2012-10-07 17:47:00
12:47 PM,82.4,57.2,42,29.91,25.0,Calm,Calm,-,N/A,,Clear,0,2012-10-07 19:47:00
1:47 PM,82.4,57.2,42,29.89,25.0,Variable,6.9,-,N/A,,Partly Cloudy,0,2012-10-07 20:47:00
3:47 PM,80.6,57.2,45,29.89,25.0,SSW,8.1,-,N/A,,Scattered Clouds,210,2012-10-07 22:47:00
5:47 PM,75.2,59.0,57,29.90,25.0,WSW,8.1,-,N/A,,Scattered Clouds,250,2012-10-08 00:47:00
8:47 PM,64.4,60.8,88,29.93,12.0,West,5.8,-,N/A,,Clear,270,2012-10-08 03:47:00
9:15 PM,64.4,60.8,88,29.94,10.0,WNW,4.6,-,N/A,,Clear,290,2012-10-08 04:15:00
9:35 PM,64.4,60.8,88,29.95,10.0,WNW,4.6,-,N/A,,Clear,290,2012-10-08 04:35:00
9:55 PM,64.4,60.8,88,29.95,10.0,Calm,Calm,-,N/A,,Clear,0,2012-10-08 04:55:00
10:15 PM,64.4,60.8,88,29.95,10.0,West,3.5,-,N/A,,Clear,280,2012-10-08 05:15:00
10:35 PM,64.4,60.8,88,29.95,10.0,West,3.5,-,N/A,,Clear,270,2012-10-08 05:35:00
10:55 PM,62.6,60.8,94,29.95,10.0,Calm,Calm,-,N/A,,Clear,0,2012-10-08 05:55:00
11:15 PM,62.6,60.8,94,29.95,9.0,Calm,Calm,-,N/A,,Clear,0,2012-10-08 06:15:00
11:35 PM,62.6,60.8,94,29.95,10.0,NW,3.5,-,N/A,,Clear,310,2012-10-08 06:35:00
11:55 PM,62.6,60.8,94,29.95,9.0,West,3.5,-,N/A,,Scattered Clouds,270,2012-10-08 06:55:00